カタログに戻る

STARLINK-37518

運用中通信VLEO
NORAD 69259·PAYLOAD·🇺🇸 United States

打ち上げ May 29, 2026 から Cape Canaveral Space Force Station

Loading…

次のパス (今後24時間)

TLE

最新Source: CelesTrak SupGP

元期: Sep 14, 2026, 21:28 UTC

1 69259C 26117X   26257.89493056 -.00015516  00000+0 -45831-3 0  2574
2 69259  53.1579 180.2457 0001269  87.9158 221.8910 15.34406505    13

AllMySatでSTARLINK-37518をリアルタイム追跡

Download on the App Store